KC8YVF-1 Weather Reports


Display with metric or nautical units.
time (UTC)temp
F
wind
direction
speed
MPH
gust
MPH
rain 1hr
in
rain 24hr
in
rain mn
in
humidity
%
barometer
mb
20260509184010 62 113 0.0 0.0 0.00 0.00 0.00 56 988.4
20260509183510 62 248 0.0 0.0 0.00 0.00 0.00 57 988.4
20260509183010 62 248 0.0 0.0 0.00 0.00 0.00 58 988.4
20260509182511 61 203 0.0 0.0 0.00 0.00 0.00 59 988.4
20260509181510 60 225 0.0 0.0 0.00 0.00 0.00 60 988.4
20260509181011 60 203 0.0 0.0 0.00 0.00 0.00 60 988.4
20260509180510 60 225 0.0 0.0 0.00 0.00 0.00 60 988.6
20260509180011 60 203 0.0 0.0 0.00 0.00 0.00 61 988.4
20260509175510 60 225 0.0 0.0 0.00 0.00 0.00 61 988.8
20260509175010 60 270 0.0 0.0 0.00 0.00 0.00 60 988.8
20260509174011 62 270 0.0 0.0 0.00 0.00 0.00 57 989.5
20260509173511 63 270 0.0 0.0 0.00 0.00 0.00 54 989.4
20260509173011 64 248 0.0 0.0 0.00 0.00 0.00 55 989.0
20260509172517 64 293 0.0 0.0 0.00 0.00 0.00 57 988.8
20260509171010 65 270 0.0 0.0 0.00 0.00 0.00 56 988.1
20260509170510 65 315 0.0 0.0 0.00 0.00 0.00 55 988.1
20260509170011 66 225 0.0 0.0 0.00 0.00 0.00 56 987.8
20260509165510 66 225 0.0 0.0 0.00 0.00 0.00 57 987.8
20260509164511 66 293 0.0 0.0 0.00 0.00 0.00 58 987.8
20260509164011 66 225 0.0 0.0 0.00 0.00 0.00 59 987.8
20260509163511 66 203 0.0 0.0 0.00 0.00 0.00 60 987.8
20260509163011 66 293 0.0 0.0 0.00 0.00 0.00 60 987.8
20260509162510 66 248 0.0 0.0 0.00 0.00 0.00 60 987.8
20260509162010 66 293 0.0 0.0 0.00 0.00 0.00 59 987.8
20260509161511 66 248 0.0 0.0 0.00 0.00 0.00 59 987.8
20260509161011 66 248 0.0 0.0 0.00 0.00 0.00 60 987.7
20260509160511 66 270 0.0 0.0 0.00 0.00 0.00 60 987.4
20260509160010 66 270 0.0 0.0 0.00 0.00 0.00 61 987.4
20260509155517 66 203 0.0 0.0 0.00 0.00 0.00 61 987.3
20260509155011 65 225 0.0 0.0 0.00 0.00 0.00 61 987.2
20260509154017 65 248 0.0 0.0 0.00 0.00 0.00 62 987.1
20260509153511 65 315 0.0 0.0 0.00 0.00 0.00 63 987.1
20260509153102 45 180 0.0 0.0 0.00 0.00 0.00 58 990.8
20260509153011 65 225 0.0 0.0 0.00 0.00 0.00 64 987.1
20260509152511 64 180 0.0 0.0 0.00 0.00 0.00 65 987.1
20260509152010 63 225 0.0 0.0 0.00 0.00 0.00 66 987.1
20260509151510 63 225 0.0 0.0 0.00 0.00 0.00 66 987.1
20260509151012 62 158 0.0 0.0 0.00 0.00 0.00 68 987.1
20260509150511 62 180 0.0 0.0 0.00 0.00 0.00 69 987.4
20260509150011 61 180 0.0 0.0 0.00 0.00 0.00 71 987.4
20260509145510 61 180 0.0 0.0 0.00 0.00 0.00 72 987.4
20260509144510 60 180 0.0 0.0 0.00 0.00 0.00 73 987.4
20260509144018 60 248 0.0 0.0 0.00 0.00 0.00 73 987.4
20260509143011 59 225 0.0 0.0 0.00 0.00 0.00 75 987.4
20260509142510 59 135 0.0 0.0 0.00 0.00 0.00 75 987.4
20260509142011 59 180 0.0 0.0 0.00 0.00 0.00 74 987.4
20260509141011 58 225 0.0 0.0 0.00 0.00 0.00 75 987.7
20260509140510 58 180 0.0 0.0 0.00 0.00 0.00 75 987.8
20260509140011 58 203 0.0 0.0 0.00 0.00 0.00 75 987.8
20260509135511 58 203 0.0 0.0 0.00 0.00 0.00 75 987.5
20260509135012 57 180 0.0 0.0 0.00 0.00 0.00 75 987.4
20260509134511 57 158 0.0 0.0 0.00 0.00 0.00 75 987.4
20260509134010 57 180 0.0 0.0 0.00 0.00 0.00 75 987.4
20260509133510 57 180 0.0 0.0 0.00 0.00 0.00 75 987.4
20260509133010 57 180 0.0 0.0 0.00 0.00 0.00 75 987.7
20260509132517 57 158 0.0 0.0 0.00 0.00 0.00 75 987.8
20260509131512 57 180 0.0 0.0 0.00 0.00 0.00 76 987.8
20260509131010 56 180 0.0 0.0 0.00 0.00 0.00 76 988.1
20260509130510 56 180 0.0 0.0 0.00 0.00 0.00 77 988.1
20260509130011 56 158 0.0 0.0 0.00 0.00 0.00 78 988.4
20260509125511 55 180 0.0 0.0 0.00 0.00 0.00 79 988.4
20260509125011 54 180 0.0 0.0 0.00 0.00 0.00 79 988.4
20260509124511 54 180 0.0 0.0 0.00 0.00 0.00 80 988.8
20260509124011 54 180 0.0 0.0 0.00 0.00 0.00 80 988.8
20260509123510 54 180 0.0 0.0 0.00 0.00 0.00 80 988.8
20260509122510 53 180 0.0 0.0 0.00 0.00 0.00 80 989.1
20260509122010 53 180 0.0 0.0 0.00 0.00 0.00 80 989.4
20260509121510 53 158 0.0 0.0 0.00 0.00 0.00 80 989.5
20260509121010 53 180 0.0 0.0 0.00 0.00 0.00 80 989.4
20260509120511 53 180 0.0 0.0 0.00 0.00 0.00 80 988.8
20260509120011 53 225 0.0 0.0 0.00 0.00 0.00 80 988.8
20260509115510 52 180 0.0 0.0 0.00 0.00 0.00 80 988.8
20260509115010 52 90 0.0 0.0 0.00 0.00 0.00 81 989.0
20260509114510 52 180 0.0 0.0 0.00 0.00 0.00 81 989.1
20260509114011 51 203 0.0 0.0 0.00 0.00 0.00 80 989.1
20260509113512 51 180 0.0 0.0 0.00 0.00 0.00 80 989.1
20260509113010 51 180 0.0 0.0 0.00 0.00 0.00 80 989.1
20260509112511 51 158 0.0 0.0 0.00 0.00 0.00 80 989.1
20260509112011 51 180 0.0 0.0 0.00 0.00 0.00 80 989.1
20260509111017 50 180 0.0 0.0 0.00 0.00 0.00 80 989.1
20260509110011 50 180 0.0 0.0 0.00 0.00 0.00 79 989.1
20260509105517 50 158 0.0 0.0 0.00 0.00 0.00 79 989.1
20260509105010 50 180 0.0 0.0 0.00 0.00 0.00 79 988.9
20260509104510 50 158 0.0 0.0 0.00 0.00 0.00 78 989.1
20260509104018 50 180 0.0 0.0 0.00 0.00 0.00 78 989.5
20260509103511 49 180 0.0 0.0 0.00 0.00 0.00 78 989.5
20260509103010 49 180 0.0 0.0 0.00 0.00 0.00 78 989.5
20260509102511 49 180 0.0 0.0 0.00 0.00 0.00 77 989.5
20260509102010 48 158 0.0 0.0 0.00 0.00 0.00 76 989.5
20260509101511 48 158 0.0 0.0 0.00 0.00 0.00 75 989.5
20260509101011 48 158 0.0 0.0 0.00 0.00 0.00 74 989.6
20260509100011 47 180 0.0 0.0 0.00 0.00 0.00 73 989.8
20260509095511 47 180 0.0 0.0 0.00 0.00 0.00 71 989.9
20260509094510 47 180 0.0 0.0 0.00 0.00 0.00 70 990.0
20260509094017 46 180 0.0 0.0 0.00 0.00 0.00 68 990.1
20260509093510 46 180 0.0 0.0 0.00 0.00 0.00 68 990.1
20260509093010 46 180 0.0 0.0 0.00 0.00 0.00 66 990.1
20260509092516 46 180 0.0 0.0 0.00 0.00 0.00 65 990.1
20260509092010 46 180 0.0 0.0 0.00 0.00 0.00 64 990.5
20260509091010 45 180 0.0 0.0 0.00 0.00 0.00 61 990.5
20260509090509 45 180 0.0 0.0 0.00 0.00 0.00 60 990.5
20260509085517 45 180 0.0 0.0 0.00 0.00 0.00 58 990.5
20260509085010 45 180 0.0 0.0 0.00 0.00 0.00 58 990.8
20260509084510 45 180 0.0 0.0 0.00 0.00 0.00 58 990.8
20260509084009 45 180 0.0 0.0 0.00 0.00 0.00 58 990.8
20260509083510 45 180 0.0 0.0 0.00 0.00 0.00 57 990.8
20260509083010 45 180 0.0 0.0 0.00 0.00 0.00 57 990.8
20260509082509 45 180 0.0 0.0 0.00 0.00 0.00 57 990.9
20260509082009 45 180 0.0 0.0 0.00 0.00 0.00 56 990.9
20260509081510 45 180 0.0 0.0 0.00 0.00 0.00 56 990.9
20260509081009 45 180 0.0 0.0 0.00 0.00 0.00 56 991.1
20260509080510 45 180 0.0 0.0 0.00 0.00 0.00 56 991.1
20260509080009 45 180 0.0 0.0 0.00 0.00 0.00 56 991.1
20260509075517 46 180 0.0 0.0 0.00 0.00 0.00 56 991.1
20260509075009 46 180 0.0 0.0 0.00 0.00 0.00 56 990.9
20260509074510 46 180 0.0 0.0 0.00 0.00 0.00 56 990.8
20260509074010 46 180 0.0 0.0 0.00 0.00 0.00 56 991.1
20260509073509 46 180 0.0 0.0 0.00 0.00 0.00 56 990.9
20260509073009 46 180 0.0 0.0 0.00 0.00 0.00 57 990.9
20260509072508 46 180 0.0 0.0 0.00 0.00 0.00 57 990.8
20260509072010 46 180 0.0 0.0 0.00 0.00 0.00 57 990.8
20260509071510 45 180 0.0 0.0 0.00 0.00 0.00 58 990.8
20260509071017 45 180 0.0 0.0 0.00 0.00 0.00 59 990.8
20260509070009 44 248 0.0 0.0 0.00 0.00 0.00 59 991.1
20260509065509 44 248 0.0 0.0 0.00 0.00 0.00 59 991.5
20260509064511 44 248 0.0 0.0 0.00 0.00 0.00 59 991.5
20260509064017 44 248 0.0 0.0 0.00 0.00 0.00 59 991.5
20260509063508 44 248 0.0 0.0 0.00 0.00 0.00 59 991.5
20260509063009 44 248 0.0 0.0 0.00 0.00 0.00 58 991.5
20260509062516 44 248 0.0 0.0 0.00 0.00 0.00 57 991.5
20260509062009 44 248 0.0 0.0 0.00 0.00 0.00 57 991.5
20260509061016 45 248 0.0 0.0 0.00 0.00 0.00 56 991.5
20260509060509 45 248 0.0 0.0 0.00 0.00 0.00 56 991.5
20260509055510 45 248 0.0 0.0 0.00 0.00 0.00 55 991.8
20260509055009 45 248 0.0 0.0 0.00 0.00 0.00 55 991.8
20260509054510 46 248 0.0 0.0 0.00 0.00 0.00 55 992.2
20260509054009 46 248 0.0 0.0 0.00 0.00 0.00 55 991.8
20260509053510 46 248 0.0 0.0 0.00 0.00 0.00 55 991.9
20260509053009 46 248 0.0 0.0 0.00 0.00 0.00 55 991.8
20260509052509 46 248 0.0 0.0 0.00 0.00 0.00 54 992.2
20260509052009 46 248 0.0 0.0 0.00 0.00 0.00 53 992.2
20260509051510 47 248 0.0 0.0 0.00 0.00 0.00 53 992.2
20260509051009 47 248 0.0 0.0 0.00 0.00 0.00 53 992.2
20260509050509 47 248 0.0 0.0 0.00 0.00 0.00 52 992.2
20260509050008 47 248 0.0 0.0 0.00 0.00 0.00 52 992.2
20260509045508 47 248 0.0 0.0 0.00 0.00 0.00 52 992.2
20260509045008 47 248 0.0 0.0 0.00 0.00 0.00 51 992.2
20260509044509 48 248 0.0 0.0 0.00 0.00 0.00 51 992.2
20260509044009 48 248 0.0 0.0 0.00 0.00 0.00 51 992.2
20260509043009 48 248 0.0 0.0 0.00 0.00 0.00 51 992.4
20260509042508 49 248 0.0 0.0 0.00 0.00 0.00 51 992.5
20260509041016 49 248 0.0 0.0 0.00 0.00 0.00 50 992.5
20260509040508 49 248 0.0 0.0 0.00 0.00 0.00 50 992.5
20260509040008 50 248 0.0 0.0 0.00 0.00 0.00 50 992.7
20260509035515 50 248 0.0 0.0 0.00 0.00 0.00 49 992.8
20260509034509 50 248 0.0 0.0 0.00 0.00 0.00 49 992.8
20260509034009 51 248 0.0 0.0 0.00 0.00 0.00 48 992.8
20260509033508 51 248 0.0 0.0 0.00 0.00 0.00 47 993.1
20260509033009 51 248 0.0 0.0 0.00 0.00 0.00 47 993.1
20260509032509 51 248 0.0 0.0 0.00 0.00 0.00 46 992.8
20260509031509 51 248 0.0 0.0 0.00 0.00 0.00 46 993.2
20260509031014 52 248 0.0 0.0 0.00 0.00 0.00 46 993.2
20260509030008 52 248 0.0 0.0 0.00 0.00 0.00 45 993.2
20260509025508 52 248 0.0 0.0 0.00 0.00 0.00 44 993.2
20260509025008 53 248 0.0 0.0 0.00 0.00 0.00 44 993.3
20260509024008 53 248 0.0 0.0 0.00 0.00 0.00 43 993.5
20260509023509 53 248 0.0 0.0 0.00 0.00 0.00 43 993.2
20260509023008 54 248 0.0 0.0 0.00 0.00 0.00 42 993.2
20260509022515 54 248 0.0 0.0 0.00 0.00 0.00 42 993.3
20260509022008 54 248 0.0 0.0 0.00 0.00 0.00 42 993.3
20260509021509 55 248 0.0 0.0 0.00 0.00 0.00 42 993.5
20260509021008 55 248 0.0 0.0 0.00 0.00 0.00 42 993.2
20260509020508 55 248 0.0 0.0 0.00 0.00 0.00 41 993.2
20260509020008 56 248 0.0 0.0 0.00 0.00 0.00 40 993.2
20260509015507 56 248 0.0 0.0 0.00 0.00 0.00 39 993.2
20260509015008 57 248 0.0 0.0 0.00 0.00 0.00 39 993.2
20260509014007 57 248 0.0 0.0 0.00 0.00 0.00 38 993.2
20260509013507 58 248 0.0 0.0 0.00 0.00 0.00 38 993.2
20260509013008 58 248 0.0 0.0 0.00 0.00 0.00 37 992.9
20260509012507 59 248 0.0 0.0 0.00 0.00 0.00 37 992.9
20260509012007 59 248 0.0 0.0 0.00 0.00 0.00 37 992.8
20260509011508 59 248 0.0 0.0 0.00 0.00 0.00 37 993.0
20260509011007 60 248 0.0 0.0 0.00 0.00 0.00 37 992.8
20260509010508 60 248 0.0 0.0 0.00 0.00 0.00 36 992.8
20260509010007 60 248 0.0 0.0 0.00 0.00 0.00 36 992.8
20260509005508 61 248 0.0 0.0 0.00 0.00 0.00 36 992.8
20260509005007 61 248 0.0 0.0 0.00 0.00 0.00 36 992.9
20260509004507 61 248 0.0 0.0 0.00 0.00 0.00 36 992.8
20260509004007 61 248 0.0 0.0 0.00 0.00 0.00 36 992.8
20260509003506 62 248 0.0 0.0 0.00 0.00 0.00 35 992.8
20260509002508 62 248 0.0 0.0 0.00 0.00 0.00 35 992.7
20260509001008 63 270 0.0 0.0 0.00 0.00 0.00 35 992.6
20260509000508 63 270 0.0 0.0 0.00 0.00 0.00 34 992.5
20260509000007 63 225 0.0 0.0 0.00 0.00 0.00 34 992.5
20260508235506 63 248 0.0 0.0 0.00 0.00 0.00 34 992.5
20260508235006 63 248 0.0 0.0 0.00 0.00 0.00 34 992.5
20260508234006 64 158 0.0 0.0 0.00 0.00 0.00 34 992.5
20260508233506 64 248 0.0 0.0 0.00 0.00 0.00 33 992.5
20260508232514 64 225 0.0 0.0 0.00 0.00 0.00 33 992.6
20260508232007 64 248 0.0 0.0 0.00 0.00 0.00 33 992.8
20260508231507 64 270 0.0 0.0 0.00 0.00 0.00 33 992.8
20260508231013 65 225 0.0 0.0 0.00 0.00 0.00 33 992.8
20260508230506 65 225 0.0 0.0 0.00 0.00 0.00 32 992.8
20260508230007 66 225 0.0 0.0 0.00 0.00 0.00 32 992.8
20260508225514 66 180 0.0 0.0 0.00 0.00 0.00 32 992.8
20260508225006 66 225 0.0 0.0 0.00 0.00 0.00 33 992.8
20260508224006 66 248 0.0 0.0 0.00 0.00 0.00 32 992.8
20260508222507 66 270 0.0 0.0 0.00 0.00 0.00 32 993.2
20260508222008 66 225 0.0 0.0 0.00 0.00 0.00 32 993.2
20260508221006 66 180 0.0 0.0 0.00 0.00 0.00 32 993.2
20260508220507 66 225 0.0 0.0 0.00 0.00 0.00 32 993.2
20260508220007 66 248 0.0 0.0 0.00 0.00 0.00 32 993.2
20260508215507 66 180 0.0 0.0 0.00 0.00 0.00 33 993.2
20260508215006 66 203 0.0 0.0 0.00 0.00 0.00 32 993.2
20260508214506 66 225 0.0 0.0 0.00 0.00 0.00 32 993.2
20260508214014 66 180 0.0 0.0 0.00 0.00 0.00 32 993.2
20260508213507 67 270 0.0 0.0 0.00 0.00 0.00 32 993.2
20260508213006 67 270 0.0 0.0 0.00 0.00 0.00 33 993.2
20260508212507 67 180 0.0 0.0 0.00 0.00 0.00 33 993.2
20260508212007 67 203 0.0 0.0 0.00 0.00 0.00 32 993.2
20260508211506 67 270 0.0 0.0 0.00 0.00 0.00 33 993.2
20260508211006 67 203 0.0 0.0 0.00 0.00 0.00 32 993.4
20260508210506 67 225 0.0 0.0 0.00 0.00 0.00 33 993.5
20260508210006 67 248 0.0 0.0 0.00 0.00 0.00 33 993.5
20260508205514 67 225 0.0 0.0 0.00 0.00 0.00 34 993.5
20260508205007 66 225 0.0 0.0 0.00 0.00 0.00 33 993.5
20260508204506 66 203 0.0 0.0 0.00 0.00 0.00 33 993.5
20260508204006 66 225 0.0 0.0 0.00 0.00 0.00 33 993.9
20260508203007 66 203 0.0 0.0 0.00 0.00 0.00 34 993.9
20260508202507 66 203 0.0 0.0 0.00 0.00 0.00 34 993.9
20260508201506 65 315 0.0 0.0 0.00 0.00 0.00 35 994.1
20260508201006 65 248 0.0 0.0 0.00 0.00 0.00 35 994.2
20260508200507 65 293 0.0 0.0 0.00 0.00 0.00 34 994.2
20260508195506 66 225 0.0 0.0 0.00 0.00 0.00 34 994.4
20260508195006 67 225 0.0 0.0 0.00 0.00 0.00 34 994.2
20260508194507 67 180 0.0 0.0 0.00 0.00 0.00 34 994.5
20260508194014 67 180 0.0 0.0 0.00 0.00 0.00 35 994.5
20260508193506 67 180 0.0 0.0 0.00 0.00 0.00 35 994.8
20260508193007 67 180 0.0 0.0 0.00 0.00 0.00 35 994.6
20260508192507 67 248 0.0 0.0 0.00 0.00 0.00 35 994.9
20260508191506 66 270 0.0 0.0 0.00 0.00 0.00 36 994.9
20260508191014 66 270 0.0 0.0 0.00 0.00 0.00 36 995.2
20260508190506 66 225 0.0 0.0 0.00 0.00 0.00 36 995.2
20260508190006 65 270 0.0 0.0 0.00 0.00 0.00 35 995.2
20260508185506 65 248 0.0 0.0 0.00 0.00 0.00 35 995.2
20260508185006 65 248 0.0 0.0 0.00 0.00 0.00 36 995.2